Location: Linz
(48.3300°N, 14.3000°E)
Time: 16:52:16
(UTC+02:00)

YUBILEINY - Pass Details

Date: 23 February 2019
Orbit: 1478 x 1508 km, 82.5° (Epoch: 16 October)

Event Time Altitude Azimuth Distance (km) Brightness Sun altitude
Rises 04:39:56 0° 186° (S) 4,585 ? -23.3°
Reaches altitude 10° 04:42:47 10° 187° (S) 3,609 ? -22.9°
Maximum altitude 04:51:29 89° 100° (E) 1,488 ? -21.5°
Drops below altitude 10° 05:00:16 10° 10° (N) 3,640 ? -20.0°
Sets 05:03:09 0° 11° (N) 4,627 ? -19.5°
